QPF
0.00 0.00 0.00 0.00 0.00 0.00 0.00 0.00 0.00 0.00 0.00 0.00 0.00 0.00 0.00 0.00 0.00 0.00 0.00 0.00 0.00 0.00 0.00 0.00 0.00 0.00 0.00 0.00 0.00 0.00 0.00 0.00 0.00 0.00 0.00 0.00 0.00 0.00 0.00 0.00 0.00 0.00 0.00 0.00 0.00 0.00 0.00
0.00 0.00 0.00 0.00 0.00 0.00 0.00 0.00 0.00 0.00 0.00 0.00 0.00 0.00 0.00 0.00 0.00 0.00 0.00 0.00 0.00 0.00 0.00 0.00 0.00 0.00 0.00 0.00 0.00 0.00 0.00 0.00 0.00 0.00 0.00 0.00 0.00 0.00 0.00 0.00 0.00 0.00 0.00 0.00 0.00 0.00 0.00
0.00 0.00 0.00 0.00 0.00 0.00 0.00 0.00 0.00 0.00 0.00 0.00 0.00 0.00 0.00 0.00 0.00 0.00 0.00 0.00 0.00 0.00 0.00 0.00 0.00 0.00 0.00 0.00 0.00 0.00 0.00 0.00 0.00 0.00 0.00 0.00 0.00 0.00 0.00 0.00 0.00 0.00 0.00 0.00 0.00 0.00 0.00
0.00 0.00 0.00 0.00 0.00 0.00 0.00 0.00 0.00 0.00 0.00 0.00 0.00 0.00 0.00 0.00 0.00 0.00 0.00 0.00 0.00 0.00 0.00 0.00 0.00 0.00 0.00 0.00 0.00 0.00 0.00 0.00 0.00 0.00 0.00 0.00 0.00 0.00 0.00 0.00 0.00 0.00 0.00 0.00 0.00 0.00 0.00
0.00 0.00 0.00 0.00 0.00 0.00 0.00 0.00 0.00 0.00 0.00 0.00 0.00 0.00 0.00 0.00 0.00 0.00 0.00 0.00 0.00 0.00 0.00 0.00 0.00 0.00 0.00 0.00 0.00 0.00 0.00 0.00 0.00 0.00 0.00 0.00 0.00 0.00 0.00 0.00 0.00 0.00 0.00 0.00 0.00 0.00 0.00
0.00 0.00 0.00 0.00 0.00 0.00 0.00 0.00 0.00 0.00 0.00 0.00 0.00 0.00 0.00 0.00 0.00 0.00 0.00 0.00 0.00 0.00 0.00 0.00 0.00 0.00 0.00 0.00 0.00 0.00 0.00 0.00 0.00 0.00 0.00 0.00 0.00 0.00 0.00 0.00 0.00 0.00 0.00 0.00 0.00 0.00 0.00
0.00 0.00 0.00 0.00 0.00 0.00 0.00 0.00 0.00 0.00 0.00 0.00 0.00 0.00 0.00 0.00 0.00 0.00 0.00 0.00 0.00 0.00 0.00 0.00 0.00 0.00 0.00 0.00 0.00 0.00 0.00 0.00 0.00 0.00 0.00 0.00 0.00 0.00 0.00 0.00 0.00 0.00 0.00 0.00 0.00 0.00 0.00
0.00 0.00 0.00 0.00 0.00 0.00 0.00 0.00 0.00 0.00 0.00 0.00 0.00 0.00 0.00 0.00 0.00 0.00 0.00 0.00 0.00 0.00 0.00 0.00 0.00 0.00 0.00 0.00 0.00 0.00 0.00 0.00 0.00 0.00 0.00 0.00 0.00 0.00 0.00 0.00 0.00 0.00 0.00 0.00 0.00 0.00 0.00
0.00 0.00 0.00 0.00 0.00 0.00 0.00 0.00 0.00 0.00 0.00 0.00 0.00 0.00 0.00 0.00 0.00 0.00 0.00 0.00 0.00 0.00 0.00 0.00 0.00 0.00 0.00 0.00 0.00 0.00 0.00 0.00 0.00 0.00 0.00 0.00 0.00 0.00 0.00 0.00 0.00 0.00 0.00 0.00 0.00 0.00 0.00
0.00 0.00 0.00 0.00 0.00 0.00 0.00 0.00 0.00 0.00 0.00 0.00 0.00 0.00 0.00 0.00 0.00 0.00 0.00 0.00 0.00 0.00 0.00 0.00 0.00 0.00 0.00 0.00 0.00 0.00 0.00 0.00 0.00 0.00 0.00 0.00 0.00 0.00 0.00 0.00 0.00 0.00 0.00 0.00 0.00 0.00 0.00
0.00 0.00 0.00 0.00 0.00 0.00 0.00 0.00 0.00 0.00 0.00 0.00 0.00 0.00 0.00 0.00 0.00 0.00 0.00 0.00 0.00 0.00 0.00 0.00 0.00 0.00 0.00 0.00 0.00 0.00 0.00 0.00 0.00 0.00 0.00 0.00 0.00 0.00 0.00 0.00 0.00 0.00 0.00 0.00 0.00 0.00 0.00
0.00 0.00 0.00 0.00 0.00 0.00 0.00 0.00 0.00 0.00 0.00 0.00 0.00 0.00 0.00 0.00 0.00 0.00 0.00 0.00 0.00 0.00 0.00 0.00 0.00 0.00 0.00 0.00 0.00 0.00 0.00 0.00 0.00 0.00 0.00 0.00 0.00 0.00 0.00 0.00 0.00 0.00 0.00 0.00 0.00 0.00 0.00
0.00 0.00 0.00 0.00 0.00 0.00 0.00 0.00 0.00 0.00 0.00 0.00 0.00 0.00 0.00 0.00 0.00 0.00 0.00 0.00 0.00 0.00 0.00 0.00 0.00 0.00 0.00 0.00 0.00 0.00 0.00 0.00 0.00 0.00 0.00 0.00 0.00 0.00 0.00 0.00 0.00 0.00 0.00 0.00 0.00 0.00 0.00
0.00 0.00 0.00 0.00 0.00 0.00 0.00 0.00 0.00 0.00 0.00 0.00 0.00 0.00 0.00 0.00 0.00 0.00 0.00 0.00 0.00 0.00 0.00 0.00 0.00 0.00 0.00 0.00 0.00 0.00 0.00 0.00 0.00 0.00 0.00 0.00 0.00 0.00 0.00 0.00 0.00 0.00 0.00 0.00 0.00 0.00 0.00
0.00 0.00 0.00 0.00 0.00 0.00 0.00 0.00 0.00 0.00 0.00 0.00 0.00 0.00 0.00 0.00 0.00 0.00 0.00 0.00 0.00 0.00 0.00 0.00 0.00 0.00 0.00 0.00 0.00 0.00 0.00 0.00 0.00 0.00 0.00 0.00 0.00 0.00 0.00 0.00 0.00 0.00 0.00 0.00 0.00 0.00 0.00
0.00 0.00 0.00 0.00 0.00 0.00 0.00 0.00 0.00 0.00 0.00 0.00 0.00 0.00 0.00 0.00 0.00 0.00 0.00 0.00 0.00 0.00 0.00 0.00 0.00 0.00 0.00 0.00 0.00 0.00 0.00 0.00 0.00 0.00 0.00 0.00 0.00 0.00 0.00 0.00 0.00 0.00 0.00 0.00 0.00 0.00 0.00
0.00 0.00 0.00 0.00 0.00 0.00 0.00 0.00 0.00 0.00 0.00 0.00 0.00 0.00 0.00 0.00 0.00 0.00 0.00 0.00 0.00 0.00 0.00 0.00 0.00 0.00 0.00 0.00 0.00 0.00 0.00 0.00 0.00 0.00 0.00 0.00 0.00 0.00 0.00 0.00 0.00 0.00 0.00 0.00 0.00 0.00 0.00
0.00 0.00 0.00 0.00 0.00 0.00 0.00 0.00 0.00 0.00 0.00 0.00 0.00 0.00 0.00 0.00 0.00 0.00 0.00 0.00 0.00 0.00 0.00 0.00 0.00 0.00 0.00 0.00 0.00 0.00 0.00 0.00 0.00 0.00 0.00 0.00 0.00 0.00 0.00 0.00 0.00 0.00 0.00 0.00 0.00 0.00 0.00
0.00 0.00 0.00 0.00 0.00 0.00 0.00 0.00 0.00 0.00 0.00 0.00 0.00 0.00 0.00 0.00 0.00 0.00 0.00 0.00 0.00 0.00 0.00 0.00 0.00 0.00 0.00 0.00 0.00 0.00 0.00 0.00 0.00 0.00 0.00 0.00 0.00 0.00 0.00 0.00 0.00 0.00 0.00 0.00 0.00 0.00 0.00
0.00 0.00 0.00 0.00 0.00 0.00 0.00 0.00 0.00 0.00 0.00 0.00 0.00 0.00 0.00 0.00 0.00 0.00 0.00 0.00 0.00 0.00 0.00 0.00 0.00 0.00 0.00 0.00 0.00 0.00 0.00 0.00 0.00 0.00 0.00 0.00 0.00 0.00 0.00 0.00 0.00 0.00 0.00 0.00 0.00 0.00 0.00
0.00 0.00 0.00 0.00 0.00 0.00 0.00 0.00 0.00 0.00 0.00 0.00 0.00 0.00 0.00 0.00 0.00 0.00 0.00 0.00 0.00 0.00 0.00 0.00 0.00 0.00 0.00 0.00 0.00 0.00 0.00 0.00 0.00 0.00 0.00 0.00 0.00 0.00 0.00 0.00 0.00 0.00 0.00 0.00 0.00 0.00 0.00
0.00 0.00 0.00 0.00 0.00 0.00 0.00 0.00 0.00 0.00 0.00 0.00 0.00 0.00 0.00 0.00 0.00 0.00 0.00 0.00 0.00 0.00 0.00 0.00 0.00 0.00 0.00 0.00 0.00 0.00 0.00 0.00 0.00 0.00 0.00 0.00 0.00 0.00 0.00 0.00 0.00 0.00 0.00 0.00 0.00 0.00 0.00
0.00 0.00 0.00 0.00 0.00 0.00 0.00 0.00 0.00 0.00 0.00 0.00 0.00 0.00 0.00 0.00 0.00 0.00 0.00 0.00 0.00 0.00 0.00 0.00 0.00 0.00 0.00 0.00 0.00 0.00 0.00 0.00 0.00 0.00 0.00 0.00 0.00 0.00 0.00 0.00 0.00 0.00 0.00 0.00 0.00 0.00 0.00
0.00 0.00 0.00 0.00 0.00 0.00 0.00 0.00 0.00 0.00 0.00 0.00 0.00 0.00 0.00 0.00 0.00 0.00 0.00 0.00 0.00 0.00 0.00 0.00 0.00 0.00 0.00 0.00 0.00 0.00 0.00 0.00 0.00 0.00 0.00 0.00 0.00 0.00 0.00 0.00 0.00 0.00 0.00 0.00 0.00 0.00 0.00
0.00 0.00 0.00 0.00 0.00 0.00 0.00 0.00 0.00 0.00 0.00 0.00 0.00 0.00 0.00 0.00 0.00 0.00 0.00 0.00 0.00 0.00 0.00 0.00 0.00 0.00 0.00 0.00 0.00 0.00 0.00 0.00 0.00 0.00 0.00 0.00 0.00 0.00 0.00 0.00 0.00 0.00 0.00 0.00 0.00 0.00 0.00
0.00 0.00 0.00 0.00 0.00 0.00 0.00 0.00 0.00 0.00 0.00 0.00 0.00 0.00 0.00 0.00 0.00 0.00 0.00 0.00 0.00 0.00 0.00 0.01 0.01 0.00 0.00 0.02 0.01 0.00 0.00 0.00 0.00 0.00 0.00 0.00 0.00 0.00 0.00 0.00 0.00 0.00 0.00 0.00 0.00 0.00 0.00
0.00 0.00 0.00 0.00 0.00 0.00 0.00 0.00 0.00 0.00 0.00 0.00 0.00 0.00 0.00 0.01 0.00 0.00 0.00 0.00 0.00 0.00 0.00 0.01 0.00 0.01 0.01 0.05 0.07 0.00 0.00 0.00 0.00 0.00 0.00 0.00 0.00 0.00 0.00 0.00 0.00 0.00 0.00 0.00 0.00 0.00 0.00
0.00 0.00 0.00 0.00 0.00 0.00 0.00 0.00 0.00 0.00 0.00 0.00 0.00 0.00 0.00 0.01 0.00 0.00 0.00 0.00 0.00 0.00 0.00 0.00 0.01 0.03 0.01 0.02 0.14 0.07 0.00 0.00 0.00 0.00 0.00 0.00 0.00 0.00 0.00 0.00 0.00 0.00 0.00 0.00 0.00 0.00 0.00
0.00 0.00 0.00 0.00 0.00 0.00 0.00 0.00 0.00 0.00 0.00 0.00 0.00 0.00 0.00 0.00 0.00 0.00 0.00 0.00 0.00 0.00 0.00 0.00 0.01 0.05 0.07 0.02 0.02 0.05 0.02 0.00 0.00 0.00 0.00 0.00 0.00 0.00 0.00 0.00 0.00 0.00 0.00 0.00 0.00 0.00 0.00
MSLP
1026.53 1026.36 1026.17 1026.12 1025.92 1025.65 1025.33 1025.08 1024.71 1024.36 1023.92 1023.46 1023.09 1022.59 1021.84 1021.16 1020.44 1019.73 1018.99 1018.12 1017.48 1017.07 1016.46 1016.02 1015.71 1015.27 1014.86 1013.95 1012.33 1010.61 1011.19 1011.73 1011.96 1012.27 1012.13 1012.18 1012.28 1012.39 1012.34 1012.11 1012.04 1012.58 1013.03 1013.25 1013.38 1013.83 1014.33
1026.82 1026.51 1026.40 1026.20 1026.06 1025.79 1025.46 1025.22 1024.77 1024.39 1023.91 1023.52 1023.06 1022.60 1021.82 1021.09 1020.33 1019.56 1018.81 1017.99 1017.18 1016.74 1016.29 1015.76 1015.57 1015.41 1014.96 1013.28 1010.51 1010.62 1011.30 1011.86 1011.84 1011.92 1011.63 1011.84 1012.12 1012.13 1012.17 1011.90 1012.15 1012.36 1013.01 1013.40 1013.85 1014.26 1014.55
1026.88 1026.76 1026.47 1026.25 1026.09 1025.93 1025.54 1025.20 1024.82 1024.46 1024.03 1023.57 1023.12 1022.46 1021.71 1020.99 1020.16 1019.29 1018.48 1017.56 1016.66 1016.33 1015.85 1015.56 1015.43 1015.17 1014.39 1011.74 1010.38 1010.79 1011.17 1011.42 1011.04 1011.12 1011.12 1011.33 1011.49 1012.00 1011.70 1011.88 1012.02 1012.79 1013.53 1013.79 1013.94 1014.40 1014.83
1026.90 1026.77 1026.65 1026.42 1026.20 1026.00 1025.75 1025.43 1025.12 1024.67 1024.22 1023.58 1022.95 1022.27 1021.58 1020.86 1020.01 1019.03 1018.22 1017.22 1016.27 1015.70 1015.42 1015.10 1015.15 1014.94 1013.24 1010.53 1010.33 1010.77 1010.98 1010.99 1010.69 1010.56 1010.63 1010.59 1010.73 1011.30 1011.68 1011.68 1012.25 1013.00 1013.77 1014.31 1014.21 1014.35 1014.70
1026.91 1026.80 1026.69 1026.52 1026.31 1026.05 1025.82 1025.54 1025.21 1024.76 1024.26 1023.66 1022.86 1022.13 1021.47 1020.68 1019.69 1018.85 1017.70 1016.45 1015.30 1014.76 1015.00 1014.91 1015.08 1014.58 1012.57 1010.32 1010.19 1009.55 1010.15 1010.27 1010.05 1010.65 1010.44 1010.23 1010.52 1011.31 1011.80 1012.48 1013.35 1013.76 1014.23 1014.40 1014.42 1014.21 1014.48
1026.95 1026.79 1026.63 1026.49 1026.29 1026.03 1025.75 1025.48 1025.24 1024.84 1024.26 1023.64 1022.93 1022.10 1021.28 1020.41 1019.43 1018.65 1017.25 1015.44 1014.12 1014.32 1014.60 1014.48 1014.38 1014.46 1012.06 1010.72 1009.91 1009.56 1009.30 1009.41 1009.78 1010.40 1010.64 1010.83 1011.41 1012.09 1012.65 1013.10 1013.77 1013.89 1014.19 1013.99 1014.11 1014.10 1014.29
1026.86 1026.78 1026.59 1026.41 1026.23 1025.99 1025.72 1025.42 1025.18 1024.87 1024.34 1023.71 1023.03 1022.22 1021.29 1020.28 1019.12 1018.28 1017.38 1015.37 1015.29 1014.97 1014.80 1014.42 1014.05 1013.28 1011.61 1010.79 1010.06 1009.54 1009.29 1009.50 1009.91 1010.55 1011.23 1011.59 1012.33 1012.72 1012.55 1012.93 1012.80 1013.23 1013.60 1013.49 1013.03 1013.04 1013.65
1026.65 1026.68 1026.60 1026.39 1026.17 1025.96 1025.67 1025.46 1025.11 1024.74 1024.30 1023.64 1022.89 1021.99 1021.09 1020.00 1018.87 1017.95 1017.86 1017.64 1017.78 1017.72 1016.29 1013.96 1013.22 1012.76 1011.63 1011.04 1010.48 1009.84 1009.53 1010.10 1010.57 1011.23 1011.71 1012.41 1012.42 1012.05 1012.14 1012.28 1012.07 1012.39 1012.99 1013.21 1012.75 1012.57 1013.40
1026.41 1026.38 1026.41 1026.33 1026.14 1025.93 1025.70 1025.47 1025.17 1024.72 1024.25 1023.66 1022.95 1022.07 1021.00 1019.75 1018.46 1017.94 1018.58 1018.52 1017.83 1017.37 1017.14 1013.74 1012.15 1011.34 1010.97 1010.92 1010.72 1010.19 1010.08 1010.47 1010.94 1011.56 1011.96 1012.44 1011.89 1011.74 1011.85 1011.76 1012.14 1012.58 1012.58 1012.61 1012.77 1013.15 1013.39
1026.19 1026.22 1026.19 1026.12 1026.07 1025.87 1025.74 1025.49 1025.17 1024.81 1024.24 1023.68 1023.09 1022.34 1021.38 1019.95 1018.81 1019.42 1018.88 1018.48 1017.94 1017.91 1017.29 1013.46 1011.39 1009.88 1010.20 1010.65 1010.73 1010.12 1010.12 1010.62 1011.29 1011.65 1012.09 1012.23 1011.57 1011.53 1011.47 1011.51 1011.85 1012.38 1012.53 1012.64 1013.06 1013.63 1014.02
1026.03 1026.04 1026.01 1026.04 1025.87 1025.84 1025.64 1025.46 1025.09 1024.73 1024.32 1023.76 1023.20 1022.56 1021.94 1021.30 1020.79 1020.31 1019.42 1018.54 1017.99 1018.00 1017.29 1012.29 1010.40 1008.93 1009.45 1010.47 1010.36 1009.98 1009.86 1010.57 1011.22 1011.81 1012.15 1012.23 1011.82 1011.55 1011.48 1011.55 1011.71 1012.28 1012.50 1012.85 1013.50 1014.08 1014.30
1025.66 1025.88 1025.80 1025.89 1025.92 1025.68 1025.51 1025.35 1025.00 1024.52 1024.12 1023.65 1023.09 1022.50 1022.15 1021.38 1021.34 1019.87 1019.11 1018.29 1018.28 1018.35 1015.77 1012.23 1010.12 1009.66 1010.35 1010.48 1010.43 1010.32 1010.28 1010.52 1011.15 1012.02 1012.34 1012.32 1011.86 1011.69 1011.65 1011.78 1011.77 1012.28 1012.99 1013.58 1014.28 1014.98 1015.39
1025.39 1025.55 1025.67 1025.63 1025.71 1025.62 1025.37 1025.13 1024.95 1024.47 1023.99 1023.55 1022.92 1022.19 1021.92 1021.50 1020.42 1019.46 1018.94 1018.81 1019.39 1017.94 1014.93 1012.58 1011.06 1010.44 1010.59 1010.84 1010.93 1011.00 1011.16 1011.50 1011.99 1012.91 1013.13 1012.86 1012.44 1012.03 1011.85 1012.15 1012.31 1012.92 1014.22 1015.50 1016.32 1016.53 1016.11
1024.94 1025.19 1025.36 1025.43 1025.42 1025.52 1025.32 1025.03 1024.80 1024.45 1023.80 1023.28 1022.63 1021.80 1020.96 1020.45 1019.73 1019.78 1019.28 1019.78 1019.70 1017.21 1014.95 1012.67 1011.36 1010.85 1011.00 1011.19 1011.29 1011.48 1011.75 1012.33 1012.60 1012.85 1013.60 1013.58 1013.16 1012.47 1012.05 1012.27 1012.83 1013.65 1014.67 1016.03 1016.87 1017.44 1016.72
1024.46 1024.76 1025.00 1025.15 1025.29 1025.29 1025.29 1024.99 1024.71 1024.37 1023.79 1023.23 1022.48 1021.70 1021.13 1019.55 1019.48 1019.72 1019.63 1020.05 1018.78 1017.09 1014.68 1013.21 1011.96 1011.47 1011.41 1011.34 1011.51 1011.87 1012.14 1012.52 1012.37 1012.69 1013.43 1013.64 1013.34 1012.60 1012.30 1012.23 1012.86 1013.93 1014.93 1015.63 1017.04 1017.98 1017.88
1023.93 1024.15 1024.61 1024.82 1024.95 1025.10 1025.21 1024.97 1024.65 1024.21 1023.57 1023.12 1023.15 1022.55 1021.07 1019.24 1019.06 1019.50 1019.98 1019.38 1018.12 1016.22 1014.97 1013.70 1012.86 1012.07 1011.87 1011.63 1011.92 1011.99 1012.07 1011.55 1011.93 1011.91 1012.28 1013.29 1013.53 1013.05 1012.78 1012.68 1013.33 1013.71 1014.76 1016.29 1017.81 1019.01 1019.08
1023.40 1023.74 1024.09 1024.46 1024.68 1024.79 1024.95 1024.87 1024.41 1024.11 1023.58 1022.84 1023.19 1022.26 1019.96 1019.18 1019.17 1019.91 1020.23 1019.21 1017.56 1015.75 1015.73 1014.71 1013.61 1013.09 1012.62 1012.35 1012.01 1011.81 1011.44 1011.05 1010.97 1011.39 1012.02 1012.86 1013.79 1014.09 1013.60 1013.61 1013.68 1014.44 1015.19 1016.54 1017.83 1018.86 1019.21
1022.76 1023.24 1023.70 1024.00 1024.39 1024.61 1024.75 1024.83 1024.41 1024.14 1023.51 1022.83 1022.96 1022.09 1019.82 1019.42 1020.19 1020.29 1020.17 1018.80 1017.66 1016.25 1015.58 1015.26 1014.08 1013.60 1013.28 1012.86 1012.47 1011.85 1011.05 1010.31 1010.11 1010.61 1012.12 1012.55 1013.76 1014.68 1014.20 1013.73 1013.58 1014.28 1015.25 1016.45 1018.41 1019.20 1019.25
1022.12 1022.72 1023.21 1023.59 1024.08 1024.43 1024.59 1024.60 1024.36 1024.16 1023.92 1023.98 1023.55 1022.15 1020.20 1019.87 1020.60 1020.72 1019.87 1018.87 1017.84 1016.84 1015.93 1015.47 1014.56 1014.10 1013.91 1013.78 1013.33 1012.11 1011.24 1010.47 1010.10 1010.44 1011.21 1012.20 1013.65 1014.84 1015.07 1014.92 1014.45 1014.70 1015.28 1016.18 1017.62 1018.47 1018.81
1021.34 1022.08 1022.62 1023.13 1023.68 1024.02 1024.34 1024.40 1024.31 1024.19 1023.98 1024.17 1024.11 1023.11 1021.77 1021.21 1021.17 1021.05 1020.52 1019.31 1018.24 1016.95 1016.11 1015.80 1015.34 1014.86 1014.44 1014.24 1013.70 1012.75 1011.78 1011.15 1010.90 1010.77 1011.08 1011.42 1013.41 1014.38 1014.76 1014.66 1014.69 1015.22 1015.42 1016.18 1017.06 1018.21 1018.44
1020.56 1021.37 1021.95 1022.66 1023.24 1023.64 1023.96 1024.19 1024.30 1024.17 1024.03 1024.39 1024.30 1023.70 1022.89 1022.44 1022.01 1021.59 1020.98 1019.94 1018.85 1017.97 1016.68 1015.93 1015.24 1015.11 1014.98 1014.88 1014.18 1013.27 1012.59 1011.89 1011.62 1011.55 1011.61 1012.25 1013.62 1014.19 1014.41 1014.27 1014.44 1014.42 1014.93 1015.71 1016.48 1016.54 1017.29
1019.83 1020.69 1021.41 1022.19 1022.73 1023.22 1023.59 1023.95 1024.03 1024.23 1024.05 1024.52 1024.39 1024.03 1023.50 1023.13 1022.49 1021.93 1021.09 1020.33 1019.42 1018.58 1017.87 1016.69 1016.30 1015.45 1015.28 1015.18 1014.72 1014.38 1013.80 1013.37 1012.98 1012.63 1012.50 1012.98 1014.01 1014.38 1014.70 1014.35 1014.38 1014.37 1014.38 1014.77 1015.23 1015.67 1015.98
1019.14 1020.00 1020.81 1021.62 1022.18 1022.71 1023.26 1023.63 1023.96 1024.05 1024.32 1024.74 1024.37 1023.84 1023.83 1023.54 1023.09 1022.60 1021.79 1021.13 1020.11 1019.18 1017.93 1017.11 1016.93 1016.33 1015.72 1015.53 1015.43 1014.76 1014.37 1014.12 1013.91 1013.92 1013.70 1013.84 1014.47 1015.41 1015.50 1014.82 1014.60 1014.42 1013.73 1013.84 1014.05 1014.27 1014.65
1018.35 1019.28 1020.19 1021.01 1021.75 1022.34 1022.86 1023.30 1023.69 1024.09 1024.38 1024.87 1024.82 1024.50 1024.57 1024.41 1023.68 1023.01 1022.35 1021.66 1020.88 1020.18 1019.57 1018.40 1017.63 1016.97 1016.30 1015.76 1015.47 1015.14 1014.78 1014.13 1013.66 1013.51 1013.68 1014.23 1014.97 1015.79 1016.63 1015.88 1015.01 1013.41 1012.26 1012.16 1012.70 1013.06 1013.56
1017.63 1018.67 1019.66 1020.47 1021.23 1021.92 1022.50 1022.99 1023.42 1023.84 1024.06 1024.77 1024.92 1024.98 1025.00 1024.85 1024.19 1023.43 1022.82 1022.15 1021.38 1020.72 1020.01 1019.32 1018.37 1018.21 1017.33 1016.57 1016.47 1015.97 1015.59 1014.84 1013.51 1012.97 1013.24 1013.78 1015.00 1016.63 1016.98 1016.45 1014.80 1012.97 1011.88 1011.61 1012.00 1012.37 1012.63
1016.99 1018.06 1019.12 1019.96 1020.77 1021.45 1022.08 1022.63 1023.12 1023.53 1023.88 1024.75 1025.00 1024.93 1025.17 1025.32 1024.51 1023.88 1023.31 1022.71 1022.32 1021.67 1020.85 1019.84 1019.28 1018.53 1017.98 1018.01 1017.99 1017.29 1016.35 1015.13 1014.06 1012.97 1012.43 1013.71 1014.37 1015.93 1017.51 1016.67 1015.03 1012.62 1011.15 1010.78 1011.34 1012.21 1012.80
1016.39 1017.44 1018.55 1019.51 1020.38 1021.05 1021.68 1022.29 1022.80 1023.28 1023.82 1024.62 1025.03 1024.96 1025.19 1025.29 1024.50 1024.04 1023.73 1023.42 1022.98 1022.62 1022.11 1021.44 1021.13 1019.67 1018.85 1019.09 1019.03 1018.23 1016.49 1014.99 1014.23 1013.60 1013.42 1014.15 1015.27 1016.10 1016.60 1015.93 1014.08 1011.75 1010.78 1010.62 1011.72 1012.31 1012.40
1015.85 1017.08 1018.09 1019.08 1019.90 1020.55 1021.24 1021.84 1022.48 1023.09 1023.70 1024.51 1024.93 1024.82 1025.11 1025.22 1024.62 1024.12 1023.96 1024.04 1023.61 1023.39 1023.02 1022.57 1021.90 1021.22 1020.60 1020.56 1020.35 1018.70 1016.71 1014.94 1014.19 1013.41 1013.08 1013.58 1014.71 1015.64 1015.78 1014.85 1013.26 1011.13 1010.75 1010.96 1011.11 1011.58 1012.48
1015.41 1016.67 1017.69 1018.62 1019.45 1020.14 1020.84 1021.54 1022.25 1022.90 1023.44 1024.14 1025.10 1024.59 1024.65 1025.31 1024.64 1023.90 1023.61 1023.50 1023.56 1023.39 1023.66 1022.98 1022.69 1022.42 1022.23 1021.90 1020.57 1019.10 1017.44 1015.96 1014.70 1014.10 1013.06 1013.11 1012.64 1013.38 1013.79 1012.66 1011.46 1010.73 1010.27 1010.31 1010.70 1011.56 1012.83
Thickness
5611 5613 5616 5618 5620 5623 5627 5630 5634 5638 5642 5647 5651 5656 5663 5670 5678 5685 5692 5700 5705 5709 5714 5719 5724 5730 5736 5732 5739 5774 5773 5769 5767 5762 5756 5751 5744 5740 5731 5741 5746 5732 5733 5734 5735 5732 5728
5602 5606 5608 5612 5614 5617 5621 5624 5630 5634 5638 5643 5647 5651 5659 5666 5674 5682 5690 5698 5705 5709 5712 5717 5720 5723 5726 5715 5768 5770 5766 5763 5762 5759 5757 5750 5743 5745 5736 5742 5736 5742 5733 5730 5729 5723 5725
5595 5597 5601 5605 5608 5611 5616 5620 5624 5628 5633 5637 5642 5648 5655 5662 5670 5680 5687 5697 5707 5710 5714 5716 5717 5719 5719 5726 5763 5764 5760 5760 5765 5762 5752 5753 5753 5741 5744 5736 5745 5731 5718 5723 5724 5720 5716
5586 5589 5592 5596 5600 5603 5607 5612 5615 5620 5625 5632 5638 5645 5652 5659 5667 5677 5685 5694 5704 5710 5714 5717 5716 5717 5711 5753 5759 5757 5756 5754 5762 5762 5759 5762 5759 5745 5740 5745 5732 5723 5711 5692 5716 5716 5717
5576 5579 5583 5587 5591 5595 5599 5603 5608 5613 5619 5625 5633 5640 5648 5656 5665 5673 5685 5696 5707 5713 5712 5714 5712 5712 5709 5752 5746 5759 5758 5750 5756 5754 5757 5762 5753 5734 5733 5711 5696 5699 5683 5690 5702 5716 5713
5565 5569 5573 5577 5581 5586 5591 5595 5600 5605 5612 5619 5627 5635 5644 5652 5662 5670 5683 5699 5710 5711 5709 5710 5713 5699 5721 5726 5745 5751 5760 5758 5747 5742 5736 5735 5720 5708 5705 5696 5669 5679 5684 5698 5694 5706 5708
5556 5559 5563 5567 5571 5576 5581 5587 5591 5596 5603 5610 5619 5628 5637 5647 5658 5667 5677 5692 5683 5689 5695 5696 5700 5701 5720 5733 5744 5741 5750 5744 5741 5729 5708 5716 5694 5688 5700 5702 5706 5700 5697 5690 5703 5713 5705
5546 5548 5551 5557 5561 5566 5571 5576 5582 5588 5594 5602 5611 5621 5632 5643 5654 5664 5666 5667 5662 5663 5664 5696 5703 5705 5719 5727 5713 5727 5743 5720 5717 5701 5708 5693 5685 5707 5711 5711 5707 5704 5696 5691 5706 5714 5708
5534 5538 5541 5544 5550 5555 5560 5565 5571 5578 5586 5593 5602 5612 5624 5638 5651 5656 5652 5654 5660 5665 5651 5684 5704 5709 5711 5718 5705 5713 5726 5716 5706 5699 5698 5682 5701 5711 5710 5709 5700 5691 5691 5695 5694 5701 5709
5523 5526 5530 5533 5537 5542 5547 5553 5559 5566 5575 5584 5592 5601 5612 5627 5639 5634 5642 5646 5652 5654 5634 5672 5693 5709 5711 5711 5698 5721 5724 5712 5701 5692 5693 5689 5707 5704 5706 5702 5702 5685 5701 5701 5691 5677 5669
5508 5513 5518 5522 5527 5530 5536 5540 5547 5555 5562 5572 5581 5589 5597 5606 5612 5619 5629 5639 5645 5645 5587 5682 5693 5723 5713 5698 5704 5708 5724 5709 5688 5691 5690 5680 5692 5695 5695 5698 5705 5692 5706 5702 5693 5678 5679
5498 5500 5505 5509 5513 5519 5524 5529 5537 5545 5552 5561 5570 5579 5586 5595 5600 5612 5623 5632 5635 5605 5592 5663 5691 5689 5685 5692 5696 5702 5705 5711 5704 5689 5689 5686 5701 5699 5696 5700 5703 5704 5694 5684 5678 5665 5647
5487 5489 5492 5498 5502 5506 5513 5519 5525 5534 5542 5549 5560 5570 5577 5583 5597 5606 5615 5619 5593 5577 5646 5659 5667 5679 5676 5675 5679 5684 5681 5678 5665 5654 5656 5672 5681 5694 5698 5685 5693 5686 5662 5624 5634 5623 5634
5476 5478 5481 5485 5490 5494 5500 5508 5514 5521 5532 5540 5550 5562 5573 5580 5590 5594 5602 5596 5568 5611 5628 5660 5669 5669 5662 5668 5670 5671 5666 5657 5669 5668 5645 5643 5640 5675 5691 5680 5670 5669 5659 5623 5627 5620 5639
5465 5467 5469 5473 5476 5481 5486 5494 5502 5510 5521 5529 5540 5551 5559 5575 5581 5583 5588 5571 5580 5603 5636 5642 5652 5653 5653 5663 5666 5659 5656 5654 5665 5666 5645 5637 5645 5678 5683 5687 5680 5668 5652 5663 5639 5636 5630
5457 5459 5459 5462 5465 5469 5473 5480 5488 5497 5509 5517 5523 5530 5545 5565 5571 5573 5571 5577 5588 5612 5623 5633 5629 5642 5639 5651 5648 5648 5646 5667 5669 5673 5673 5660 5641 5669 5674 5680 5675 5668 5670 5632 5612 5608 5615
5449 5451 5453 5454 5456 5459 5463 5469 5478 5486 5497 5507 5510 5524 5543 5553 5560 5550 5536 5564 5591 5614 5607 5610 5618 5621 5632 5639 5646 5642 5652 5670 5674 5671 5668 5662 5639 5645 5663 5656 5652 5650 5644 5639 5632 5617 5602
5442 5444 5445 5447 5448 5450 5453 5457 5467 5475 5486 5497 5499 5510 5534 5541 5532 5535 5539 5567 5582 5594 5600 5599 5614 5618 5623 5628 5633 5640 5647 5665 5679 5674 5653 5660 5636 5619 5643 5662 5665 5657 5647 5639 5602 5622 5611
5433 5434 5435 5437 5438 5439 5442 5448 5455 5462 5468 5474 5480 5494 5519 5526 5503 5517 5541 5556 5567 5577 5584 5588 5599 5609 5611 5614 5614 5633 5644 5665 5675 5671 5656 5660 5629 5596 5620 5635 5649 5652 5650 5640 5625 5618 5617
5426 5425 5426 5426 5426 5428 5430 5435 5441 5447 5453 5456 5463 5464 5484 5500 5504 5518 5524 5537 5547 5567 5573 5577 5584 5594 5602 5600 5612 5618 5634 5650 5656 5663 5659 5660 5635 5624 5605 5625 5630 5632 5640 5632 5625 5595 5613
5418 5416 5416 5414 5415 5416 5418 5421 5426 5432 5436 5438 5443 5445 5469 5457 5476 5494 5507 5521 5529 5536 5558 5567 5575 5580 5589 5589 5596 5613 5623 5633 5643 5646 5656 5647 5628 5633 5635 5643 5639 5640 5637 5626 5623 5628 5614
5409 5406 5406 5405 5404 5404 5405 5407 5411 5414 5419 5419 5423 5434 5445 5452 5466 5478 5488 5501 5512 5522 5534 5546 5553 5570 5576 5578 5591 5595 5599 5607 5617 5628 5641 5636 5621 5634 5634 5640 5636 5636 5639 5631 5631 5630 5630
5400 5398 5396 5394 5394 5393 5391 5392 5394 5399 5401 5400 5411 5423 5428 5436 5445 5456 5465 5476 5491 5503 5522 5536 5542 5550 5562 5573 5578 5590 5596 5598 5605 5609 5614 5622 5613 5605 5611 5634 5629 5607 5633 5633 5635 5637 5635
5395 5393 5391 5388 5385 5383 5382 5382 5383 5385 5389 5391 5396 5407 5408 5405 5428 5441 5447 5460 5473 5481 5492 5510 5525 5538 5551 5559 5571 5578 5587 5595 5600 5605 5610 5609 5606 5593 5585 5607 5573 5629 5647 5650 5645 5645 5639
5391 5389 5385 5383 5380 5377 5375 5375 5376 5377 5381 5380 5385 5391 5397 5394 5413 5427 5435 5443 5454 5466 5478 5491 5506 5513 5529 5544 5546 5554 5543 5571 5591 5606 5605 5611 5597 5578 5575 5584 5609 5631 5648 5645 5638 5637 5645
5388 5385 5380 5377 5374 5373 5372 5371 5371 5372 5374 5373 5375 5381 5385 5390 5394 5412 5415 5429 5430 5445 5454 5475 5486 5494 5517 5516 5508 5531 5536 5557 5573 5594 5607 5602 5605 5591 5559 5580 5582 5622 5648 5656 5650 5620 5634
5385 5382 5377 5373 5370 5368 5366 5364 5365 5365 5364 5364 5365 5370 5373 5378 5383 5396 5396 5406 5417 5426 5435 5450 5453 5473 5496 5488 5503 5507 5535 5562 5561 5567 5578 5575 5565 5573 5549 5574 5593 5634 5649 5652 5611 5617 5634
5380 5377 5374 5370 5366 5364 5362 5360 5358 5357 5356 5354 5353 5359 5358 5361 5367 5381 5386 5386 5392 5403 5414 5425 5440 5451 5465 5478 5486 5504 5519 5544 5557 5572 5579 5572 5560 5548 5552 5557 5579 5642 5642 5628 5637 5639 5633
5376 5373 5370 5367 5364 5361 5359 5357 5354 5352 5352 5349 5343 5351 5354 5350 5358 5368 5375 5380 5383 5387 5396 5410 5419 5427 5441 5452 5475 5486 5500 5515 5539 5544 5575 5565 5581 5573 5578 5583 5614 5635 5635 5641 5637 5634 5628